Total_Precipitation_Accumulation
0.98 0.99 0.97 0.98 1.01 1.03 1.01 0.93 0.89 0.84 0.80 0.79 0.74 0.71 0.71 0.73 0.73 0.75 0.72 0.70 0.68 0.66 0.66 0.69 0.74 0.76 0.80 0.83 0.86 1.00 1.17 1.29 1.36 1.15 1.01 1.06 1.13 1.09 1.12 1.05 0.95 0.92 1.02
0.83 0.86 0.85 0.81 0.77 0.78 0.81 0.81 0.76 0.74 0.73 0.72 0.66 0.61 0.57 0.55 0.55 0.54 0.53 0.56 0.58 0.57 0.60 0.65 0.66 0.67 0.69 0.74 0.81 0.88 1.02 1.20 1.37 1.33 1.14 1.14 1.15 1.12 1.18 1.16 1.00 0.87 0.91
0.74 0.74 0.72 0.70 0.66 0.65 0.66 0.66 0.64 0.64 0.64 0.60 0.57 0.55 0.49 0.49 0.46 0.44 0.46 0.51 0.52 0.51 0.55 0.61 0.66 0.73 0.73 0.75 0.81 0.83 0.92 1.05 1.27 1.37 1.28 1.24 1.28 1.27 1.37 1.27 1.11 1.07 0.87
0.68 0.68 0.67 0.69 0.66 0.61 0.57 0.56 0.56 0.56 0.58 0.60 0.60 0.50 0.42 0.37 0.37 0.36 0.36 0.40 0.41 0.43 0.50 0.57 0.62 0.72 0.78 0.81 0.81 0.83 0.88 1.00 1.15 1.32 1.34 1.34 1.39 1.42 1.45 1.42 1.26 1.11 0.98
0.68 0.67 0.71 0.73 0.72 0.69 0.67 0.64 0.62 0.59 0.54 0.53 0.54 0.52 0.45 0.37 0.33 0.32 0.32 0.35 0.42 0.47 0.50 0.52 0.56 0.65 0.73 0.71 0.68 0.71 0.84 1.03 1.11 1.27 1.34 1.33 1.31 1.42 1.41 1.24 1.15 1.06 0.95
0.79 0.78 0.78 0.77 0.73 0.70 0.67 0.65 0.65 0.63 0.58 0.52 0.51 0.50 0.46 0.35 0.35 0.35 0.33 0.38 0.46 0.51 0.54 0.54 0.51 0.53 0.52 0.53 0.59 0.66 0.76 0.97 1.27 1.46 1.42 1.34 1.21 1.20 1.22 1.17 1.17 1.14 1.10
0.95 0.88 0.82 0.75 0.71 0.66 0.59 0.62 0.66 0.62 0.57 0.51 0.47 0.48 0.47 0.40 0.36 0.34 0.34 0.39 0.50 0.56 0.59 0.59 0.48 0.42 0.49 0.55 0.59 0.65 0.76 0.90 1.15 1.48 1.58 1.36 1.26 1.22 1.26 1.26 1.29 1.33 1.22
0.94 0.86 0.76 0.66 0.65 0.66 0.65 0.66 0.63 0.59 0.55 0.55 0.54 0.52 0.48 0.39 0.36 0.35 0.34 0.40 0.51 0.54 0.55 0.57 0.59 0.56 0.52 0.55 0.60 0.72 0.87 0.99 1.07 1.16 1.46 1.30 1.09 1.07 1.14 1.17 1.25 1.28 1.19
0.92 0.77 0.65 0.58 0.58 0.58 0.59 0.58 0.56 0.56 0.54 0.49 0.47 0.48 0.49 0.46 0.40 0.36 0.34 0.42 0.49 0.50 0.48 0.47 0.46 0.49 0.52 0.63 0.78 1.01 1.14 1.25 1.19 1.32 1.49 1.43 1.27 1.17 1.05 1.06 1.26 1.30 1.26
0.70 0.60 0.56 0.54 0.50 0.46 0.46 0.48 0.49 0.51 0.48 0.41 0.39 0.42 0.43 0.41 0.32 0.29 0.31 0.38 0.45 0.48 0.51 0.52 0.46 0.43 0.53 0.69 0.94 1.22 1.35 1.42 1.29 1.38 1.61 1.64 1.47 1.42 1.37 1.24 1.31 1.31 1.26
0.57 0.52 0.52 0.46 0.38 0.34 0.38 0.43 0.44 0.41 0.40 0.39 0.39 0.37 0.33 0.26 0.22 0.21 0.22 0.26 0.35 0.45 0.52 0.59 0.58 0.51 0.58 0.77 0.98 1.17 1.33 1.36 1.39 1.45 1.46 1.48 1.53 1.52 1.44 1.34 1.27 1.23 1.19
0.50 0.49 0.48 0.42 0.26 0.23 0.33 0.37 0.36 0.39 0.38 0.35 0.34 0.32 0.27 0.25 0.18 0.16 0.17 0.17 0.20 0.36 0.54 0.58 0.59 0.57 0.63 0.83 0.99 1.22 1.43 1.50 1.47 1.47 1.32 1.25 1.20 1.20 1.20 1.11 1.02 0.94 0.92
0.48 0.49 0.44 0.37 0.30 0.23 0.27 0.31 0.32 0.33 0.30 0.25 0.26 0.27 0.24 0.25 0.20 0.12 0.13 0.14 0.16 0.27 0.42 0.48 0.53 0.58 0.74 1.05 1.21 1.37 1.53 1.62 1.62 1.47 1.28 1.17 1.01 0.93 0.92 0.95 0.90 0.82 0.74
0.51 0.47 0.44 0.41 0.34 0.27 0.25 0.21 0.22 0.25 0.26 0.24 0.24 0.26 0.25 0.25 0.20 0.16 0.18 0.19 0.20 0.27 0.41 0.53 0.63 0.71 0.91 1.22 1.41 1.58 1.62 1.52 1.35 1.27 1.16 1.07 0.91 0.83 0.83 0.77 0.74 0.71 0.72
0.46 0.38 0.33 0.30 0.28 0.29 0.23 0.14 0.12 0.13 0.13 0.16 0.18 0.18 0.20 0.19 0.13 0.15 0.17 0.18 0.20 0.24 0.37 0.56 0.73 0.87 1.08 1.30 1.46 1.50 1.47 1.37 1.25 1.06 0.96 0.98 0.95 0.86 0.78 0.66 0.61 0.59 0.66
0.39 0.32 0.25 0.21 0.20 0.19 0.23 0.17 0.08 0.05 0.05 0.06 0.07 0.07 0.09 0.10 0.09 0.12 0.15 0.18 0.21 0.27 0.38 0.59 0.72 0.83 1.02 1.23 1.37 1.34 1.23 1.15 1.06 0.93 0.85 0.82 0.81 0.77 0.72 0.63 0.54 0.55 0.62
0.33 0.27 0.20 0.17 0.17 0.16 0.20 0.26 0.22 0.13 0.07 0.06 0.05 0.05 0.06 0.07 0.09 0.12 0.15 0.20 0.23 0.29 0.39 0.58 0.69 0.79 0.97 1.11 1.17 1.16 1.12 1.02 0.92 0.86 0.81 0.73 0.67 0.63 0.57 0.51 0.48 0.51 0.52
0.19 0.13 0.13 0.16 0.16 0.17 0.17 0.17 0.19 0.23 0.25 0.21 0.11 0.06 0.06 0.08 0.10 0.11 0.15 0.20 0.26 0.30 0.44 0.60 0.71 0.76 0.84 0.90 0.97 1.03 1.03 0.95 0.84 0.78 0.78 0.73 0.66 0.58 0.50 0.46 0.46 0.42 0.42
0.12 0.13 0.12 0.13 0.14 0.14 0.14 0.14 0.15 0.17 0.20 0.22 0.19 0.13 0.10 0.12 0.15 0.18 0.21 0.25 0.33 0.40 0.48 0.59 0.66 0.71 0.73 0.73 0.77 0.83 0.87 0.85 0.77 0.72 0.70 0.68 0.62 0.55 0.46 0.39 0.35 0.26 0.29
0.09 0.06 0.06 0.08 0.07 0.08 0.09 0.10 0.11 0.13 0.17 0.20 0.21 0.18 0.17 0.25 0.30 0.32 0.28 0.26 0.31 0.39 0.46 0.53 0.58 0.62 0.60 0.60 0.62 0.65 0.68 0.68 0.65 0.62 0.60 0.58 0.51 0.42 0.37 0.33 0.29 0.28 0.29
0.06 0.03 0.02 0.03 0.04 0.05 0.05 0.06 0.08 0.10 0.15 0.19 0.19 0.16 0.23 0.30 0.35 0.36 0.35 0.34 0.35 0.39 0.43 0.44 0.47 0.49 0.48 0.47 0.47 0.49 0.52 0.56 0.57 0.59 0.55 0.50 0.41 0.35 0.30 0.26 0.21 0.19 0.19
0.03 0.02 0.02 0.03 0.03 0.02 0.02 0.04 0.06 0.08 0.11 0.14 0.16 0.17 0.26 0.29 0.33 0.36 0.39 0.41 0.41 0.41 0.40 0.39 0.40 0.40 0.41 0.40 0.40 0.40 0.43 0.46 0.51 0.55 0.56 0.50 0.40 0.33 0.26 0.21 0.18 0.16 0.16
0.02 0.01 0.01 0.02 0.02 0.01 0.01 0.03 0.05 0.07 0.09 0.10 0.13 0.17 0.23 0.31 0.37 0.40 0.42 0.41 0.41 0.40 0.36 0.34 0.35 0.38 0.37 0.35 0.34 0.37 0.40 0.43 0.48 0.55 0.58 0.52 0.41 0.32 0.25 0.23 0.21 0.19 0.16
0.01 0.01 0.01 0.02 0.02 0.01 0.02 0.03 0.04 0.05 0.07 0.09 0.12 0.16 0.20 0.28 0.35 0.43 0.47 0.44 0.42 0.41 0.38 0.37 0.36 0.36 0.32 0.28 0.27 0.26 0.28 0.34 0.42 0.50 0.52 0.50 0.39 0.29 0.21 0.19 0.19 0.17 0.17
0.01 0.02 0.02 0.01 0.01 0.02 0.02 0.03 0.04 0.05 0.05 0.06 0.08 0.11 0.14 0.19 0.25 0.34 0.43 0.47 0.47 0.47 0.43 0.41 0.41 0.37 0.31 0.24 0.20 0.18 0.24 0.32 0.39 0.43 0.47 0.43 0.33 0.26 0.22 0.20 0.18 0.15 0.15
0.01 0.01 0.01 0.01 0.01 0.01 0.02 0.03 0.03 0.03 0.04 0.04 0.06 0.07 0.09 0.12 0.17 0.22 0.29 0.36 0.41 0.46 0.50 0.52 0.50 0.40 0.31 0.25 0.23 0.24 0.26 0.26 0.29 0.32 0.35 0.35 0.27 0.25 0.24 0.21 0.16 0.14 0.15